Temperature
16 16 16 17 16 16 16 16 16 16 17 17 17 17 17 17 17 17 16 16 16 16 16 16 16 16 15 15 15 15 15 15 15 14 14 14 14 14
16 16 16 16 16 16 16 16 16 16 16 16 16 17 17 17 17 16 16 16 16 16 16 16 16 15 15 15 15 15 15 15 15 15 14 14 14 14
16 16 16 16 16 16 16 16 16 16 16 16 16 16 16 16 16 16 16 16 16 16 16 16 15 15 15 15 15 15 15 15 15 15 14 14 14 14
16 16 16 16 16 16 16 16 16 16 15 16 16 16 16 16 16 16 16 16 16 16 16 15 15 15 15 15 15 15 15 15 15 14 14 14 14 14
16 16 16 16 16 16 16 16 15 15 15 15 15 15 16 16 16 16 16 16 16 15 15 15 15 15 15 15 15 15 15 14 14 14 14 14 14 14
16 16 16 16 16 15 15 15 15 15 15 15 15 15 15 15 15 15 15 15 15 15 15 15 15 15 15 14 14 14 14 14 14 14 14 14 13 13
16 15 15 15 15 15 15 15 15 15 15 15 15 15 15 15 15 15 15 15 15 15 15 14 14 14 14 14 14 14 14 13 13 13 13 13 13 13
15 15 15 15 15 15 15 15 15 14 14 14 14 14 14 14 14 14 14 14 14 14 14 14 14 14 14 13 13 13 13 13 13 13 13 13 12 12
15 15 14 14 14 14 14 14 14 14 14 13 13 13 13 13 13 13 13 13 13 13 13 13 13 13 13 13 13 13 12 12 12 12 12 12 12 12
14 14 14 14 14 14 14 13 13 13 13 13 13 13 13 13 12 12 12 12 12 12 12 12 12 12 12 12 12 12 12 12 12 12 12 11 11 11
14 14 14 13 13 13 13 13 13 13 12 12 12 12 12 12 12 12 12 12 12 12 11 11 11 11 12 12 12 11 11 11 11 11 11 11 11 10
13 13 13 13 13 13 12 12 12 12 12 12 12 12 12 11 11 11 11 11 10 10 10 10 10 10 10 11 11 11 10 10 10 10 10 10 10 10
12 12 12 12 12 12 12 12 12 11 11 11 11 11 11 11 10 10 10 10 10 10 9 9 9 9 9 9 10 10 10 10 10 10 9 9 9 9
12 12 12 11 11 11 11 11 11 11 11 11 11 10 10 10 10 9 9 9 9 9 9 9 8 8 8 8 8 9 9 9 9 9 9 9 9 9
11 11 11 11 11 11 10 10 10 10 10 10 10 9 9 9 9 9 9 9 9 8 8 8 8 8 7 7 7 7 8 8 8 8 8 8 8 8
10 10 10 10 10 10 10 9 9 9 9 9 9 8 8 8 8 8 8 8 8 8 8 7 7 7 7 7 7 7 7 7 7 7 7 7 8 8
10 9 9 9 9 9 8 8 8 8 8 8 8 8 8 8 7 7 7 7 7 7 7 7 7 7 6 6 6 6 6 6 6 6 6 7 7 7
9 9 9 8 8 8 8 7 7 7 7 7 7 7 7 7 6 6 6 6 6 6 6 6 6 6 6 6 6 6 6 6 6 6 6 6 6 7
8 8 8 7 7 7 7 7 6 6 6 6 6 6 6 6 6 6 5 5 5 5 5 5 5 5 4 4 5 5 5 5 5 5 5 5 6 6
8 7 7 7 6 6 6 6 6 5 5 5 5 5 5 5 5 5 5 5 5 5 5 5 5 4 4 4 4 5 5 5 4 4 5 5 5 6
6 6 6 6 6 5 5 5 5 5 4 4 4 4 4 4 4 4 4 4 4 4 4 4 4 4 4 4 4 4 5 5 4 4 4 4 5 5
6 6 5 5 5 5 4 4 4 4 4 4 4 4 4 4 4 4 4 4 3 3 3 4 4 4 4 4 3 4 4 4 5 5 5 4 4 4
5 5 5 5 4 4 4 4 4 4 3 3 3 3 3 3 3 3 3 3 3 3 3 3 3 3 3 3 3 3 4 4 4 5 5 5 5 5
Wind_Speed
7 7 5 4 4 4 4 4 4 3 4 4 3 3 6 9 11 10 11 14 15 16 16 16 16 16 16 16 16 16 16 16 16 16 16 16 15 15
6 7 6 4 4 4 4 4 4 5 4 3 4 3 3 5 8 9 11 12 13 14 15 15 15 15 15 15 15 15 15 16 16 16 16 16 17 17
6 7 7 5 4 4 3 3 4 4 5 4 2 2 3 4 4 6 7 8 9 12 13 13 13 13 14 14 14 14 14 15 15 16 16 17 17 17
7 7 6 5 5 4 4 5 5 5 5 5 3 2 4 3 3 3 4 5 7 9 11 12 12 13 13 14 14 13 13 14 15 15 16 16 17 17
7 7 6 5 5 4 4 5 4 4 4 4 4 2 2 2 2 2 3 3 5 6 8 10 11 12 13 12 13 13 14 14 15 15 16 16 17 18
5 5 5 6 6 5 4 5 4 4 3 4 4 3 2 2 1 2 3 2 3 4 5 6 7 9 10 11 12 12 13 14 14 15 16 16 17 18
4 4 4 5 5 5 4 4 4 3 3 3 4 2 2 2 3 2 3 3 3 2 2 3 3 4 6 8 10 12 13 13 14 15 16 17 17 18
4 3 3 3 4 5 5 5 5 4 4 4 4 4 4 3 2 2 2 2 3 1 2 3 2 4 5 7 10 12 13 13 14 15 16 16 17 18
3 2 2 1 1 1 2 2 3 5 6 5 5 5 4 3 3 3 3 4 4 2 2 4 3 4 6 8 11 12 12 13 14 15 15 16 16 17
2 2 2 1 1 1 2 1 1 2 2 3 4 4 3 2 3 3 4 4 4 3 2 4 4 4 5 8 10 11 12 12 13 13 14 14 15 15
2 2 1 0 1 1 1 1 0 1 1 0 1 1 1 1 0 0 1 2 3 3 2 3 3 4 4 5 7 9 11 12 12 13 13 14 14 14
3 3 3 2 2 1 1 1 1 1 1 2 2 2 2 2 1 1 2 2 3 3 2 2 3 3 4 3 4 6 8 10 12 14 14 15 14 10
3 3 3 5 5 4 3 2 1 1 1 2 2 3 3 2 2 2 2 3 4 4 2 2 3 3 4 5 5 6 6 7 8 10 12 13 14 10
4 3 5 8 8 7 5 5 5 4 2 3 3 3 3 3 4 4 4 4 5 6 5 3 3 4 5 6 6 6 6 7 7 8 9 11 12 13
6 8 9 9 8 7 8 8 6 4 3 3 3 3 3 4 4 4 4 4 5 6 5 5 5 5 5 7 7 7 7 7 7 7 8 8 9 8
6 8 9 10 8 8 7 6 5 4 4 3 3 3 4 4 4 4 4 4 4 5 5 6 5 6 6 8 8 9 8 7 7 8 8 9 9 9
5 6 6 6 7 6 6 6 5 5 5 4 4 4 4 4 4 4 4 4 4 5 7 6 6 7 8 8 8 9 9 9 9 8 8 10 10 10
7 7 6 6 6 6 5 5 5 5 5 4 4 4 5 5 5 5 5 5 5 6 7 7 7 6 6 5 7 8 8 8 9 9 8 9 11 10
8 7 6 6 5 5 5 5 5 5 5 5 5 5 5 5 5 5 6 6 6 7 7 6 6 5 8 10 6 6 7 9 9 9 9 9 11 11
7 6 5 5 5 5 5 5 5 6 5 5 5 5 5 5 6 6 6 7 7 7 7 7 6 6 7 8 8 9 9 9 8 10 10 10 10 11
6 5 5 4 4 5 5 5 5 5 6 5 5 6 6 6 6 6 7 8 7 7 8 8 8 9 7 6 7 8 9 9 10 9 9 10 10 9
4 4 4 4 5 5 5 5 5 5 6 5 6 6 6 5 6 7 7 7 7 7 8 8 9 7 6 6 9 11 11 10 10 12 12 10 7 6
4 4 4 4 4 4 5 5 6 5 6 6 6 6 6 6 6 6 7 7 7 8 8 8 8 7 7 7 8 9 12 12 9 9 9 9 11 15
Wind_Direction
201 198 201 204 198 202 192 182 182 222 253 255 252 245 237 238 243 238 240 244 242 242 242 243 245 248 250 251 251 251 253 254 255 255 256 257 258 260
199 198 204 206 203 202 204 203 198 201 234 246 242 253 247 247 242 235 241 245 244 243 244 246 248 250 252 253 254 253 254 254 255 255 256 256 257 257
199 200 207 200 198 202 199 202 207 198 227 257 249 252 248 255 255 243 246 244 247 245 246 247 249 252 254 254 254 255 256 257 258 258 258 258 258 257
200 198 207 201 201 205 203 211 215 210 218 245 255 244 244 255 256 254 255 252 249 250 244 245 250 253 254 254 253 254 256 258 258 258 258 259 259 257
193 196 203 197 210 212 210 214 217 215 214 229 251 247 255 270 272 271 269 268 264 257 249 249 251 255 255 255 255 257 258 258 259 259 259 261 261 260
187 190 193 198 211 211 214 218 213 207 208 223 245 254 256 262 248 255 269 262 267 270 262 259 257 257 258 257 258 258 259 259 260 261 263 263 263 263
180 187 194 196 203 208 216 219 209 213 217 229 246 255 255 245 245 241 253 271 269 252 261 263 259 264 270 268 264 264 264 263 264 266 266 265 264 263
188 193 201 211 220 219 221 217 205 210 221 226 240 245 257 252 255 243 248 262 272 245 247 271 252 265 270 271 274 272 270 269 270 271 271 270 268 265
180 189 213 233 207 225 230 229 229 229 217 218 234 243 252 246 236 246 240 244 255 267 239 266 252 264 273 275 272 273 273 275 278 279 278 276 273 271
153 169 179 207 241 213 214 229 239 251 241 228 238 250 256 253 228 239 249 259 266 261 221 259 270 274 288 284 277 275 278 281 283 283 282 281 280 279
94 82 95 78 358 121 178 209 172 347 8 139 196 292 325 345 140 189 258 261 272 268 219 247 273 288 285 279 280 283 283 283 281 282 282 281 282 283
67 54 49 43 27 106 158 172 189 306 359 37 35 12 5 14 68 199 238 263 274 276 248 253 274 288 286 272 283 293 293 289 286 285 284 282 284 285
80 58 44 56 64 73 91 87 56 40 44 42 33 19 13 3 348 313 268 248 259 262 265 248 268 271 267 285 292 289 289 293 297 294 289 286 286 277
82 67 57 57 61 60 65 56 56 63 57 48 34 13 0 351 338 326 308 283 265 268 276 258 259 271 278 285 288 289 289 291 292 291 296 297 292 281
77 69 61 59 60 57 50 50 51 48 41 34 15 353 341 333 335 333 333 324 306 292 287 276 270 276 271 274 281 286 295 295 288 289 297 298 295 293
74 64 60 59 57 49 42 41 42 43 43 27 4 349 349 350 350 343 332 333 322 315 310 301 290 279 277 275 275 281 285 286 291 294 297 296 293 287
81 64 54 49 46 41 37 34 31 31 29 18 8 359 353 350 344 340 331 328 320 316 318 322 318 296 272 271 278 281 288 291 292 297 301 299 295 290
75 66 56 48 44 36 30 26 24 18 11 5 4 358 349 343 338 337 333 326 319 315 314 317 321 319 311 285 247 274 289 295 301 301 298 295 296 297
69 65 57 47 40 33 26 20 11 3 1 2 358 351 343 337 332 330 328 322 316 312 310 312 316 316 313 314 304 262 285 299 302 301 297 291 292 296
60 58 49 40 32 24 17 11 5 1 0 357 353 347 342 335 330 325 322 318 313 311 311 313 314 312 304 303 302 300 289 290 297 299 302 301 295 288
53 48 40 31 23 16 10 4 0 356 353 349 346 343 339 334 328 324 320 318 314 313 314 315 313 305 299 294 292 296 300 289 280 286 299 301 303 303
48 41 32 25 18 13 7 1 356 352 348 345 339 336 332 328 324 322 322 321 318 315 312 312 316 316 311 303 303 306 309 313 302 285 271 262 285 298
39 36 29 21 14 7 1 356 352 345 342 339 335 331 328 326 322 320 321 321 319 319 320 319 320 318 312 306 307 310 314 319 320 321 315 300 273 267
Height
1553 1555 1556 1557 1559 1560 1560 1561 1562 1562 1562 1562 1563 1564 1564 1564 1565 1565 1566 1566 1566 1567 1567 1567 1567 1567 1566 1566 1566 1566 1566 1566 1566 1566 1565 1565 1565 1564
1549 1551 1552 1553 1555 1556 1557 1558 1558 1559 1558 1559 1559 1560 1560 1561 1561 1561 1562 1562 1562 1562 1562 1562 1562 1562 1562 1562 1562 1561 1561 1561 1561 1561 1560 1560 1560 1559
1545 1547 1548 1550 1551 1552 1553 1554 1554 1555 1555 1555 1556 1556 1556 1557 1557 1557 1557 1557 1557 1558 1558 1558 1558 1558 1557 1557 1557 1556 1556 1556 1556 1555 1555 1554 1554 1553
1542 1544 1545 1546 1547 1548 1549 1550 1550 1551 1551 1551 1551 1552 1552 1552 1552 1552 1552 1552 1553 1553 1553 1553 1552 1552 1552 1552 1552 1551 1551 1550 1550 1549 1549 1548 1547 1547
1538 1540 1541 1542 1543 1544 1545 1546 1546 1546 1547 1547 1547 1547 1547 1548 1547 1547 1548 1547 1547 1547 1547 1547 1547 1547 1546 1546 1546 1545 1545 1544 1543 1543 1542 1541 1540 1540
1534 1536 1537 1538 1539 1540 1541 1541 1542 1542 1542 1542 1542 1543 1543 1543 1542 1542 1542 1542 1542 1542 1542 1541 1541 1541 1541 1540 1540 1539 1538 1538 1537 1536 1535 1534 1533 1532
1530 1532 1533 1534 1535 1536 1537 1537 1537 1537 1537 1537 1538 1538 1538 1538 1538 1537 1537 1537 1536 1536 1536 1536 1535 1535 1534 1534 1533 1532 1531 1531 1530 1529 1527 1526 1525 1525
1526 1527 1529 1530 1531 1531 1532 1533 1533 1533 1533 1533 1533 1533 1533 1533 1533 1533 1532 1531 1530 1531 1530 1529 1529 1528 1528 1527 1526 1526 1524 1523 1522 1521 1520 1518 1517 1516
1522 1523 1525 1525 1526 1527 1528 1528 1528 1529 1529 1529 1528 1528 1528 1528 1528 1528 1527 1526 1525 1525 1524 1522 1523 1522 1521 1520 1520 1518 1517 1516 1514 1513 1511 1510 1509 1507
1519 1520 1521 1521 1522 1522 1523 1523 1524 1524 1524 1524 1524 1524 1524 1524 1523 1523 1522 1521 1520 1519 1518 1517 1516 1515 1514 1514 1513 1511 1510 1508 1507 1505 1503 1502 1500 1499
1515 1517 1517 1518 1518 1518 1519 1519 1519 1519 1519 1519 1520 1520 1519 1519 1519 1518 1517 1516 1514 1514 1513 1511 1509 1508 1507 1507 1506 1504 1503 1501 1499 1497 1496 1494 1492 1490
1513 1514 1515 1515 1515 1516 1516 1516 1516 1516 1517 1516 1516 1516 1516 1515 1514 1514 1513 1512 1510 1509 1508 1506 1504 1503 1500 1499 1499 1497 1496 1494 1492 1490 1488 1487 1485 1483
1511 1512 1512 1513 1513 1513 1513 1513 1513 1514 1514 1513 1512 1512 1512 1512 1511 1510 1509 1508 1506 1505 1504 1502 1500 1498 1496 1493 1491 1491 1489 1487 1485 1483 1481 1479 1477 1475
1510 1511 1511 1511 1511 1511 1511 1511 1511 1511 1510 1510 1509 1509 1509 1508 1507 1506 1505 1503 1502 1501 1499 1497 1495 1493 1491 1487 1485 1483 1482 1480 1478 1476 1474 1471 1469 1468
1510 1510 1511 1510 1510 1510 1510 1509 1509 1508 1508 1507 1506 1506 1505 1504 1503 1501 1500 1499 1497 1496 1494 1491 1489 1487 1485 1482 1479 1477 1475 1473 1471 1469 1466 1464 1462 1460
1510 1510 1510 1510 1509 1509 1508 1508 1507 1506 1505 1505 1504 1503 1502 1500 1499 1497 1495 1494 1492 1490 1489 1487 1484 1482 1479 1477 1474 1471 1469 1466 1464 1462 1459 1456 1455 1453
1510 1510 1509 1509 1508 1508 1507 1506 1506 1504 1503 1503 1501 1500 1498 1497 1495 1493 1491 1489 1487 1485 1483 1482 1479 1477 1474 1472 1468 1466 1463 1461 1458 1456 1452 1449 1448 1446
1510 1509 1509 1509 1508 1507 1507 1506 1505 1503 1502 1501 1499 1497 1495 1493 1491 1490 1488 1486 1483 1481 1479 1476 1473 1470 1468 1465 1464 1460 1458 1455 1452 1450 1447 1443 1440 1439
1510 1509 1509 1509 1508 1507 1506 1505 1504 1502 1501 1499 1497 1495 1493 1491 1489 1487 1484 1482 1480 1478 1475 1472 1469 1466 1463 1460 1457 1456 1453 1449 1446 1444 1441 1438 1434 1432
1511 1510 1510 1509 1508 1507 1506 1505 1503 1501 1499 1497 1495 1493 1491 1488 1486 1484 1481 1479 1476 1473 1471 1468 1466 1463 1460 1457 1453 1450 1449 1445 1441 1438 1435 1432 1429 1426
1512 1511 1511 1510 1509 1507 1506 1504 1502 1500 1498 1496 1493 1491 1489 1486 1483 1481 1478 1475 1472 1470 1467 1464 1462 1460 1456 1453 1450 1446 1444 1441 1438 1434 1430 1427 1423 1421
1513 1512 1511 1510 1508 1507 1505 1503 1501 1499 1497 1494 1491 1489 1486 1483 1481 1478 1475 1472 1469 1466 1463 1461 1458 1456 1453 1450 1446 1443 1439 1437 1434 1431 1427 1424 1421 1416
1514 1512 1511 1510 1508 1506 1504 1502 1500 1498 1495 1492 1489 1486 1484 1481 1478 1475 1472 1469 1466 1464 1461 1458 1455 1453 1450 1447 1444 1440 1436 1433 1429 1426 1423 1421 1418 1415